TimeCDT,TemperatureF,Dew PointF,Humidity,Sea Level PressureIn,VisibilityMPH,Wind Direction,Wind SpeedMPH,Gust SpeedMPH,PrecipitationIn,Events,Conditions,WindDirDegrees,DateUTC
12:53 AM,73.0,66.0,79,30.06,10.0,North,4.6,-,N/A,,Clear,350,2013-09-05 05:53:00
1:53 AM,68.0,66.0,93,30.06,10.0,Calm,Calm,-,N/A,,Clear,0,2013-09-05 06:53:00
2:53 AM,69.1,66.0,90,30.07,10.0,WNW,3.5,-,N/A,,Clear,290,2013-09-05 07:53:00
3:53 AM,66.9,64.9,93,30.07,8.0,Calm,Calm,-,N/A,,Partly Cloudy,0,2013-09-05 08:53:00
4:53 AM,66.0,64.9,96,30.07,7.0,Calm,Calm,-,N/A,,Partly Cloudy,0,2013-09-05 09:53:00
5:53 AM,66.0,64.9,96,30.08,7.0,Calm,Calm,-,N/A,,Scattered Clouds,0,2013-09-05 10:53:00
6:53 AM,66.0,64.9,96,30.09,5.0,Calm,Calm,-,N/A,,Mostly Cloudy,0,2013-09-05 11:53:00
7:53 AM,73.0,70.0,90,30.12,10.0,Calm,Calm,-,N/A,,Mostly Cloudy,0,2013-09-05 12:53:00
8:53 AM,79.0,69.1,72,30.13,10.0,Calm,Calm,-,N/A,,Partly Cloudy,0,2013-09-05 13:53:00
9:53 AM,82.0,69.1,65,30.13,10.0,Calm,Calm,-,N/A,,Clear,0,2013-09-05 14:53:00
10:53 AM,88.0,70.0,55,30.13,10.0,Calm,Calm,-,N/A,,Clear,0,2013-09-05 15:53:00
11:53 AM,91.9,71.1,50,30.12,10.0,Calm,Calm,-,N/A,,Clear,0,2013-09-05 16:53:00
12:53 PM,95.0,64.9,37,30.11,10.0,NE,8.1,-,N/A,,Clear,50,2013-09-05 17:53:00
1:53 PM,96.1,63.0,33,30.09,10.0,ENE,5.8,-,N/A,,Clear,60,2013-09-05 18:53:00
2:53 PM,96.1,63.0,33,30.06,10.0,NE,8.1,-,N/A,,Clear,50,2013-09-05 19:53:00
3:53 PM,96.1,62.1,32,30.05,10.0,ENE,8.1,-,N/A,,Clear,60,2013-09-05 20:53:00
4:53 PM,95.0,59.0,30,30.04,10.0,NE,4.6,-,N/A,,Clear,50,2013-09-05 21:53:00
5:53 PM,93.9,61.0,33,30.04,10.0,ENE,6.9,-,N/A,,Clear,70,2013-09-05 22:53:00
6:53 PM,90.0,66.0,45,30.04,10.0,East,5.8,-,N/A,,Clear,80,2013-09-05 23:53:00
7:53 PM,75.0,70.0,84,30.05,10.0,Calm,Calm,-,N/A,,Clear,0,2013-09-06 00:53:00
8:53 PM,72.0,68.0,87,30.06,10.0,Calm,Calm,-,N/A,,Clear,0,2013-09-06 01:53:00
9:53 PM,81.0,68.0,65,30.10,10.0,SSW,10.4,-,N/A,,Partly Cloudy,210,2013-09-06 02:53:00
10:53 PM,73.9,71.1,91,30.11,10.0,Calm,Calm,-,N/A,,Clear,0,2013-09-06 03:53:00
11:53 PM,73.9,71.1,91,30.09,10.0,Calm,Calm,-,N/A,,Clear,0,2013-09-06 04:53:00